Kosmos-1691

operational
NORAD ID: 16143 Int'l Des: 1985-094 Owner: GUKOS Country: SU
LEOCIRCULARPOLAR

About Kosmos-1691

Description loading...

Live Position

Loading 3D Globe...

Upcoming Passes

Altitude History

Altitude vs Time

uPlot chart will show altitude changes over time

Two-Line Element Set

1 16143U 85094F 26061.03230001 .00000009 00000-0 -11578-4 0 9991
2 16143 82.6082 336.5563 0007352 13.0107 358.5163 12.62895192861970
Epoch: Mar 2, 2026 • Age: 32 hours

Current Status

Altitude 1430.6 km
Velocity 7.14 km/s
Sub-Earth Point -38.45°S, 123.88°W
Launch Date Oct 9, 1985
Age 40.3 years
Type other

Technical Details

Classification Payload
Mass 225.00 kg
Dry Mass 225.00 kg
Total Mass 225.00 kg
Length 1.60 m
Diameter 0.80 m
Span 7.00 m
Shape Cyl + Ant
Manufacturer NPOPM
Bus Type Strela-3
Phase Status In Orbit
Owner/State GUKOS/SU

Large Constellations

Loading constellations...